Flag for Germany Weather past 2 weeks in Lohne (Oldenburg), Lower Saxony, Germany

Now
41 °F

Light rain. Passing clouds.


Feels Like: 33 °F
Forecast: 38 / 45 °F
Wind: 15 mph from South

Location: Bremen Airport

Current Time: Mar 1, 2015 at 4:04:18 AM

Latest Report: Mar 1, 2015 at 3:20 AM


Visibility: N/A

Pressure: 29.59 "Hg

Humidity: 66%

Dew point: 30 °F

Location of Lohne (Oldenburg)Location

Historic Weather in Lohne (Oldenburg) — Graph

°F

Lohne (Oldenburg) temperature yesterday

Maximum temperature yesterday: 45 °F (at 2:20 PM)
Minimum temperature yesterday: 28 °F (at 4:50 AM)
Average temperature yesterday: 37 °F

Past Weeks' High & Low Weather Summary

 TemperatureHumidityPressure
High50 °F (Feb 14, 2:20 PM)100% (Feb 15, 4:50 AM)30.72 "Hg (Feb 15, 4:50 AM)
Low27 °F (Feb 17, 5:50 AM)57% (Feb 18, 4:20 PM)29.27 "Hg (Feb 21, 6:50 AM)
Average38 °F86%29.94 "Hg
* Reported Feb 14 2:20 AM — Mar 1 2:50 AM, Lohne (Oldenburg), Weather by CustomWeather, © 2015

Note: Actual official high and low records may vary slightly from our data, if they occured in-between our weather recording intervals... More about our weather records

Advertising

Lohne (Oldenburg) weather history for previous 24 hours

 ConditionsComfort  
Time TempWeatherWind HumidityBarometerVisibility
2:50 AM
Sun, Mar 1
41 °FPassing clouds.17 mph66%29.62 "HgN/A
2:20 AM41 °FPassing clouds.15 mph66%29.62 "HgN/A
1:50 AM41 °FPassing clouds.15 mph66%29.65 "HgN/A
1:20 AM41 °FPassing clouds.16 mph66%29.68 "HgN/A
12:50 AM41 °FPassing clouds.17 mph66%29.71 "HgN/A
12:20 AM41 °FPassing clouds.16 mph61%29.74 "HgN/A
11:50 PM
Sat, Feb 28
39 °FPassing clouds.15 mph65%29.74 "HgN/A
11:20 PM39 °FPassing clouds.16 mph65%29.77 "HgN/A
10:50 PM39 °FClear.14 mph65%29.80 "Hg10 mi
10:20 PM39 °FClear.13 mph65%29.80 "Hg10 mi
9:50 PM37 °FClear.10 mph70%29.83 "Hg10 mi
9:20 PM37 °FClear.10 mph70%29.86 "Hg10 mi
8:50 PM39 °FClear.12 mph65%29.86 "Hg10 mi
8:20 PM37 °FClear.9 mph75%29.89 "Hg10 mi
7:50 PM37 °FClear.9 mph75%29.89 "Hg10 mi
7:20 PM37 °FClear.9 mph75%29.89 "Hg10 mi
6:50 PM41 °FClear.9 mph66%29.89 "Hg10 mi
6:20 PM39 °FClear.9 mph70%29.89 "Hg10 mi
5:50 PM41 °FSunny.12 mph70%29.92 "Hg10 mi
5:20 PM43 °FSunny.12 mph66%29.92 "Hg10 mi
4:50 PM45 °FSunny.16 mph61%29.95 "Hg10 mi
4:20 PM45 °FSunny.15 mph61%29.95 "Hg10 mi
3:50 PM45 °FPassing clouds.17 mph57%29.98 "HgN/A
3:20 PM45 °FPassing clouds.16 mph61%29.98 "HgN/A
2:50 PM45 °FPassing clouds.15 mph61%30.01 "HgN/A
2:20 PM45 °FPassing clouds.17 mph66%30.01 "HgN/A
1:50 PM43 °FScattered clouds.16 mph71%30.01 "HgN/A
1:20 PM43 °FScattered clouds.16 mph71%30.04 "HgN/A
12:50 PM41 °FScattered clouds.14 mph76%30.04 "HgN/A
12:20 PM41 °FPartly sunny.13 mph81%30.07 "HgN/A
11:50 AM39 °FPartly sunny.16 mph87%30.07 "HgN/A
11:20 AM39 °FPartly sunny.14 mph81%30.07 "HgN/A
10:50 AM39 °FScattered clouds.14 mph81%30.07 "HgN/A
10:20 AM39 °FPassing clouds.10 mph81%30.09 "Hg6 mi
9:50 AM37 °FPassing clouds.9 mph87%30.09 "Hg6 mi
9:20 AM36 °FPassing clouds.8 mph93%30.09 "Hg6 mi
8:50 AM34 °FScattered clouds.7 mph93%30.09 "Hg6 mi
8:20 AM32 °FScattered clouds.3 mph100%30.09 "Hg6 mi
7:50 AM32 °FPassing clouds.8 mph93%30.09 "Hg5 mi
7:20 AM32 °FScattered clouds.7 mph93%30.09 "Hg5 mi
6:50 AM32 °FPassing clouds.6 mph100%30.09 "HgN/A
6:20 AM32 °FPassing clouds.6 mph100%30.09 "HgN/A
5:50 AM32 °FPassing clouds.6 mph100%30.09 "HgN/A
5:20 AM32 °FPassing clouds.6 mph100%30.09 "Hg5 mi
4:50 AM28 °FFog.5 mph100%30.09 "Hg4 mi
4:20 AM30 °FIce fog.5 mph100%30.09 "Hg3 mi
Weather by CustomWeather, © 2015

See weather overviewHow to use our weather pages